This is the latest recevied weather packets stored in our database for station/object WB3IGR. If no packets are shown the sender has not sent any weather packets the latest 10 day(s).
| Time | Temp. | Humidity | Pressure | Rain* | Wind** | Luminosity | Snow |
|---|---|---|---|---|---|---|---|
| 1778103959 | 19.44° C | 89% | 1009 hPa | 0 mm | - | 115 W/m² | - |
| 1778103656 | 18.89° C | 89% | 1008.8 hPa | 0 mm | - | 144 W/m² | - |
| 1778103355 | 18.89° C | 89% | 1008.8 hPa | 0 mm | - | 117 W/m² | - |
| 1778103051 | 18.89° C | 89% | 1008.9 hPa | 0 mm | - | 106 W/m² | - |
| 1778102748 | 18.89° C | 89% | 1008.9 hPa | 0 mm | - | 105 W/m² | - |
| 1778102443 | 18.89° C | 89% | 1008.9 hPa | 0 mm | - | 79 W/m² | - |
| 1778102139 | 18.89° C | 89% | 1009 hPa | 0 mm | - | 92 W/m² | - |
| 1778101836 | 18.89° C | 89% | 1008.9 hPa | 0 mm | - | 104 W/m² | - |
| 1778101533 | 19.44° C | 89% | 1008.8 hPa | 0 mm | - | 90 W/m² | - |
| 1778101230 | 19.44° C | 88% | 1008.8 hPa | 0 mm | - | 141 W/m² | - |
| 1778100927 | 19.44° C | 88% | 1008.5 hPa | 0 mm | - | 176 W/m² | - |
| 1778100622 | 19.44° C | 88% | 1008.6 hPa | 0 mm | - | 202 W/m² | - |
| 1778100320 | 19.44° C | 88% | 1008.6 hPa | 0 mm | - | 162 W/m² | - |
| 1778100016 | 19.44° C | 88% | 1008.5 hPa | 0 mm | - | 316 W/m² | - |
| 1778099715 | 18.89° C | 89% | 1008.7 hPa | 0 mm | - | 216 W/m² | - |
| 1778099411 | 18.33° C | 90% | 1008.7 hPa | 0 mm | - | 210 W/m² | - |
| 1778099109 | 18.33° C | 91% | 1008.7 hPa | 0 mm | - | 211 W/m² | - |
| 1778098804 | 18.33° C | 91% | 1008.6 hPa | 0 mm | - | 97 W/m² | - |
| 1778098503 | 18.33° C | 90% | 1008.7 hPa | 0 mm | - | 47 W/m² | - |
| 1778098199 | 18.33° C | 90% | 1008.8 hPa | 0 mm | - | 98 W/m² | - |
| 1778097895 | 18.89° C | 90% | 1008.6 hPa | 0 mm | - | 145 W/m² | - |
| 1778097591 | 18.89° C | 90% | 1008.7 hPa | 0 mm | - | 156 W/m² | - |
| 1778097289 | 18.33° C | 90% | 1008.8 hPa | 0 mm | - | 287 W/m² | - |
| 1778096985 | 18.33° C | 91% | 1008.8 hPa | 0 mm | - | 134 W/m² | - |
| 1778096683 | 18.33° C | 90% | 1008.7 hPa | 0 mm | - | 153 W/m² | - |
* Rain latest hour (hover to see other rain measurements)
** Current wind speed in m/s (hover to see current wind gust speed)